Regional Weather Roundup
Issued by NWS

Home | Current Version | Previous Version | Text Only | Print | Product List | Glossary Off
Versions: 1 2 3 4 5 6 7 8 9 10 11 12 13 14 15 16 17 18 19 20 21 22 23 24 25 26 27 28 29 30 31 32 33 34 35 36 37 38 39 40 41 42 43 44 45 46 47 48 49 50

000
ASUS45 KBOU 210107
RWRCO

WEATHER ROUNDUP FOR COLORADO
NATIONAL WEATHER SERVICE DENVER/BOULDER CO
700 PM MDT WED SEP 20 2017

NOTE: "FAIR" INDICATES FEW OR NO CLOUDS BELOW 12000 FEET WITH NO
SIGNIFICANT WEATHER AND/OR OBSTRUCTIONS TO VISIBILITY.

COZ001>005-013-030-031-210200-
...NORTHWEST COLORADO...

CITY           SKY/WX    TMP DP  RH WIND       PRES   REMARKS
CRAIG          MOCLDY    70  31  23 SW14      29.85S
HAYDEN         FAIR      68  33  27 W12G21    29.89R
MEEKER         FAIR      69  33  26 S13G22    29.87F
RABBIT EARS PA FAIR      50  32  50 SW10G21   30.15S
STEAMBOAT SPGS FAIR      65  33  29 W6        29.90R
WALDEN         FAIR      57  30  35 SW8       29.98F
$$

COZ006>008-011-210200-
...WEST CENTRAL VALLEYS...

CITY           SKY/WX    TMP DP  RH WIND       PRES   REMARKS
GRAND JUNCTION FAIR      80  32  17 S10       29.78S
MONTROSE       FAIR      75  27  17 SW13      29.90S
EAGLE          FAIR      72  28  19 SW18      29.92
RIFLE          FAIR      76  27  16 SW7       29.83S
DELTA          FAIR      79  26  13 S10       29.86R
NUCLA          FAIR      75  23  14 S14       29.94F
$$

COZ017>023-064>068-210200-
...SOUTHWEST COLORADO...

CITY           SKY/WX    TMP DP  RH WIND       PRES   REMARKS
DURANGO        FAIR      72  27  18 W7        30.01F
CORTEZ         FAIR      73  30  20 S10       29.94F
PAGOSA SPRINGS FAIR      69  21  16 SW7       30.10S
TELLURIDE      FAIR      62  23  22 S7G23     30.17S
WOLF CREEK PAS NOT AVBL
$$

COZ009-010-012-014-032>034-037-058>063-210200-
...CENTRAL COLORADO...

CITY           SKY/WX    TMP DP  RH WIND       PRES   REMARKS
ASPEN          FAIR      63  27  25 SW6G17    29.99S
BUENA VISTA    FAIR      68  20  15 S14       30.00R
COPPER MTN     FAIR      54   9  16 S16G28    30.29R
BERTHOUD PASS  FAIR      45  37  76 W10G29    30.31S
COTTONWOOD PAS FAIR      64  18  16 W5        30.15R
GUNNISON       FAIR      67  28  23 W5        30.01R
KREMMLING      FAIR      73  25  16 SW14G23   29.96S
LEADVILLE      FAIR      57  11  16 S8        30.13R
MONARCH PASS   FAIR      50  21  32 W30G36    30.41S
SALIDA         FAIR      71  26  18 SW5       30.05R
SUNLIGHT       FAIR      46  27  46 SW15G30   30.21F
WILKERSON PASS FAIR      50  23  34 S8G16     30.25S
$$

COZ069>075-210200-
...SAN LUIS VALLEY/SANGRE DE CRISTO MOUNTAINS...

CITY           SKY/WX    TMP DP  RH WIND       PRES   REMARKS
ALAMOSA        FAIR      65  31  28 SW10      30.06R
DEL NORTE      FAIR      65  26  23 SW12G18   30.09R
LA VETA PASS   FAIR      57  25  28 MISG      30.31S
SAGUACHE       FAIR      66  28  24 SW16G28   30.03R
$$

COZ035-036-038>040-210200-
...NORTHERN COLORADO FRONT RANGE...

CITY           SKY/WX    TMP DP  RH WIND       PRES   REMARKS
DENVER INTL AP FAIR      70  29  21 S17       29.83R
DMNS CITY PARK   N/A     70  33  26 N8        29.83R
AURORA         PTCLDY    70  31  23 S18       29.85R
FRONT RANGE AP PTCLDY    73  28  19 S12G17    29.85R
ERIE MUNI ARPT FAIR      67  35  30 W5        29.86S
BOULDER MUN AP FAIR      70  36  28 NW3       29.82S
CENTENNIAL     FAIR      68  30  24 S9        29.86R
BROOMFIELD     PTCLDY    72  32  23 NW6       29.85S
FORT COLLINS   FAIR      72  35  25 VRB5      29.81F
LONGMONT       FAIR      69  38  32 W3        29.83S
$$

COZ041-046-047-076>085-087-088-210200-
...PIKES PEAK/PALMER DIVIDE AND SOUTHERN FOOTHILLS...

CITY           SKY/WX    TMP DP  RH WIND       PRES   REMARKS
COLO. SPRINGS  FAIR      63  31  30 S9        29.97R
A. F. ACADEMY  FAIR      64  29  26 SE21      29.95R
SCHRIEVER AFB  FAIR      60  28  29 SE7       29.97R
CHEYENNE MTN   FAIR      61  28  28 S14       29.95S
ELLICOTT         N/A    N/A N/A N/A SE10      29.95S
FALCON         FAIR      59  28  31 S10       30.01S
FORT CARSON    FAIR      67  31  25 S6        29.93F
LIMON          FAIR      65  28  24 SE20      29.91S
MONUMENT HILL  FAIR      59  30  33 S22G35    29.97R
CANON CITY     CLEAR     70  36  28 NE7       29.90S
WALSENBURG     NOT AVBL
TRINIDAD       FAIR      73  34  23 S22G31    29.90S
$$

COZ042>045-048>051-090-091-210200-
...NORTHEAST COLORADO...

CITY           SKY/WX    TMP DP  RH WIND       PRES   REMARKS
GREELEY ARPT   FAIR      71  33  24 SE14      29.79F
AKRON          FAIR      69  27  20 SE16      29.87S
BURLINGTON     FAIR      66  33  29 SE9       29.90S
WRAY           FAIR      70  30  23 SE10G16   29.87F
YUMA           FAIR      64  32  29 SE10      29.87S
STERLING       FAIR      70  32  24 S9        29.82S
HOLYOKE        NOT AVBL
FORT MORGAN    FAIR      70  27  20 SE16G22   29.84S
$$

COZ086-089-092>099-210200-
...SOUTHEAST COLORADO...

CITY           SKY/WX    TMP DP  RH WIND       PRES   REMARKS
PUEBLO         FAIR      74  33  22 E17       29.83S
LA JUNTA       FAIR      73  37  27 SE15      29.85S
LAMAR          FAIR      71  36  27 SE12      29.86S
SPRINGFIELD      N/A     61  42  49 SE9       29.93S
$$



USA.gov is the U.S. government's official web portal to all federal, state and local government web resources and services.